Orbital Elements at Epoch 2459200.5 (2020-Dec-17.0) TDB
Reference: JPL 41 (heliocentric ecliptic J2000)
Element | Value | Uncertainty (1-sigma) | Units |
e | .1482070076630778 | 1.9016e-08 | |
a | 3.16208153592434 | 1.3304e-08 | au |
q | 2.693438893498324 | 5.9237e-08 | au |
i | 11.761087879165 | 6.5662e-07 | deg |
node | 205.0091669023416 | 2.2244e-06 | deg |
peri | 118.8999292455807 | 7.4229e-06 | deg |
M | 45.81767063181575 | 6.0785e-06 | deg |
tp | 2458939.110265047270 (2020-Mar-30.61026505) | 3.3993e-05 | TDB |
period | 2053.799402836504 5.62 | 1.2961e-05 3.549e-08 | d yr |
n | .1752848888274111 | 1.1062e-09 | deg/d |
Q | 3.630724178350356 | 1.5275e-08 | au |
|
| | Orbit Determination Parameters
Additional Information
|